Location: Nora Junction
(43.1400°N, 93.0163°W)
Time: 01:19:00
(UTC+00:00)

CBERS-1 - Pass Details

Date: 18 November 2025
Orbit: 765 x 772 km, 98.8° (Epoch: 08 December)

Event Time Altitude Azimuth Distance (km) Brightness Sun altitude
Rises 23:06:11 0° 165° (SSE) 3,230 7.3 -4.3°
Reaches altitude 10° 23:08:29 10° 165° (SSE) 2,308 6.6 -4.7°
Maximum altitude 23:13:35 88° 254° (WSW) 779 4.1 -5.6°
Drops below altitude 10° 23:18:43 10° 346° (NNW) 2,326 6.4 -6.4°
Sets 23:21:02 0° 346° (NNW) 3,258 7.2 -6.8°
